Tracking 19564 objects as of 20-Mar-2019
HD Live streaming from Space Station
objects crossing your sky now

FENGYUN 1C DEB

Track FENGYUN 1C DEB now!
10-day predictions


NORAD ID: 31613
Int'l Code: 1999-025BZT
Perigee: 786.4 km
Apogee: 1,330.6 km
Inclination: 98.5 °
Period: 106.2 minutes
Semi major axis: 7429 km
RCS: 0.0083 m2 (small)
Launch date: May 10, 1999
Source: People's Republic of China (PRC)
Launch site: Taiyaun Space Center, China (TSC)

Note: This is SATELLITE DEBRIS
aabbcc
Your satellite tracking list
Your tracking list is empty




NASA's NSSDC Master Catalog

Two Line Element Set (TLE):
1 31613U 99025BZT 19075.82163911 -.00000242 +00000-0 -19586-3 0  9994
2 31613 098.4649 205.6074 0366212 083.6918 280.5794 13.55693723583303
Source of the keplerian elements: AFSPC